Location: Newark
(20.4406°S, 50.8231°W)
Time: 19:12:21
(UTC+00:00)

Hubble Space Telescope - Visible Passes

Search period start: 17 September 2019 00:00
Search period end: 27 September 2019 00:00
Orbit: 536 x 540 km, 28.5° (Epoch: 17 September)

Date Brightness Start Highest point End Pass type
(mag) Time Alt. Az. Time Alt. Az. Time Alt. Az.
17 Sep 1.1 21:51:17 10° WSW 21:55:23 54° SSE 21:58:45 14° E visible
17 Sep 3.3 23:32:39 10° W 23:34:07 20° W 23:34:07 20° W visible
18 Sep 0.9 21:40:43 10° WSW 21:44:52 67° SSE 21:48:59 10° ENE visible
18 Sep 3.0 23:22:20 10° W 23:24:26 22° WNW 23:24:26 22° WNW visible
19 Sep 2.9 23:12:08 10° W 23:14:49 21° NW 23:14:49 21° NW visible
20 Sep 3.1 23:02:08 10° WNW 23:04:44 16° NNW 23:05:15 16° NNW visible
21 Sep 3.4 22:52:37 10° NW 22:54:08 12° NNW 22:55:38 10° N visible
